• In Spain
  • List of Countries
  • For 7 days
  • Water Temperature
  • Satellite Maps
  • Weather Map
  • Weather Widgets
  • user-avatar
    Login

    Hourly Weather Oruro

    Today, 23 September, Sunday

    Time Temperature Precipitation Wind Pressure Humidity
    00:00 +7°C° 0 mm 4 mps 476 mmHg 51%
    01:00 +7°C° 0 mm 4 mps 475 mmHg 52%
    02:00 +7°C° 0 mm 4 mps 475 mmHg 53%
    03:00 +7°C° 0 mm 3 mps 475 mmHg 56%
    04:00 +7°C° 0 mm 3 mps 474 mmHg 58%
    05:00 +5°C° 0 mm 3 mps 474 mmHg 61%
    06:00 +7°C° 0 mm 3 mps 475 mmHg 57%
    07:00 +8°C° 0 mm 3 mps 475 mmHg 53%
    08:00 +7°C° 0 mm 4 mps 476 mmHg 50%
    09:00 +10°C° 0 mm 3 mps 477 mmHg 43%
    10:00 +12°C° 0 mm 3 mps 478 mmHg 36%
    11:00 +14°C° 0 mm 3 mps 479 mmHg 30%
    12:00 +14°C° 0 mm 3 mps 479 mmHg 27%
    13:00 +16°C° 0 mm 3 mps 479 mmHg 23%
    14:00 +17°C° 0 mm 3 mps 479 mmHg 20%
    15:00 +17°C° 0 mm 4 mps 478 mmHg 22%
    16:00 +16°C° 0 mm 5 mps 478 mmHg 23%
    17:00 +15°C° 0 mm 6 mps 478 mmHg 25%
    18:00 +14°C° 0.1 mm 6 mps 477 mmHg 33%
    19:00 +12°C° 0.1 mm 5 mps 476 mmHg 40%
    20:00 +9°C° 0.1 mm 5 mps 476 mmHg 48%
    21:00 +8°C° 0.3 mm 4 mps 476 mmHg 51%
    22:00 +8°C° 0.3 mm 4 mps 476 mmHg 53%
    23:00 +8°C° 0.3 mm 3 mps 476 mmHg 55%

    Tomorrow, 24 September, Monday

    Time Temperature Precipitation Wind Pressure Humidity
    00:00 +8°C° 0.1 mm 3 mps 475 mmHg 58%
    01:00 +7°C° 0.1 mm 3 mps 475 mmHg 60%
    02:00 +6°C° 0.1 mm 4 mps 475 mmHg 62%
    03:00 +7°C° 0 mm 3 mps 474 mmHg 63%
    04:00 +7°C° 0 mm 3 mps 474 mmHg 64%
    05:00 +5°C° 0 mm 3 mps 474 mmHg 65%
    06:00 +7°C° 0 mm 3 mps 475 mmHg 62%
    07:00 +8°C° 0 mm 3 mps 475 mmHg 59%
    08:00 +8°C° 0 mm 3 mps 476 mmHg 56%
    09:00 +10°C° 0.1 mm 3 mps 477 mmHg 50%
    10:00 +11°C° 0.1 mm 4 mps 478 mmHg 44%
    11:00 +12°C° 0.1 mm 4 mps 479 mmHg 39%
    12:00 +13°C° 0.2 mm 4 mps 479 mmHg 36%
    13:00 +13°C° 0.2 mm 4 mps 478 mmHg 34%
    14:00 +14°C° 0.2 mm 5 mps 478 mmHg 32%
    15:00 +13°C° 0.4 mm 5 mps 477 mmHg 36%
    16:00 +12°C° 0.4 mm 5 mps 476 mmHg 41%
    17:00 +10°C° 0.4 mm 5 mps 476 mmHg 45%
    18:00 +9°C° 1 mm 5 mps 475 mmHg 51%
    19:00 +8°C° 1 mm 5 mps 475 mmHg 56%
    20:00 +7°C° 1 mm 4 mps 475 mmHg 62%
    21:00 +7°C° 0.7 mm 4 mps 475 mmHg 63%
    22:00 +7°C° 0.7 mm 5 mps 476 mmHg 64%
    23:00 +6°C° 0.7 mm 5 mps 476 mmHg 65%

    Day after tomorrow, 25 September, Tuesday

    Time Temperature Precipitation Wind Pressure Humidity
    00:00 +6°C° 0.1 mm 4 mps 476 mmHg 65%
    01:00 +6°C° 0.1 mm 4 mps 475 mmHg 65%
    02:00 +7°C° 0.1 mm 3 mps 475 mmHg 65%
    03:00 +7°C° 0 mm 3 mps 475 mmHg 67%
    04:00 +5°C° 0 mm 3 mps 474 mmHg 70%
    05:00 +5°C° 0 mm 3 mps 474 mmHg 72%
    06:00 +5°C° 0 mm 3 mps 475 mmHg 68%
    07:00 +7°C° 0 mm 3 mps 475 mmHg 63%
    08:00 +7°C° 0 mm 3 mps 476 mmHg 59%
    09:00 +9°C° 0 mm 3 mps 477 mmHg 48%
    10:00 +10°C° 0 mm 3 mps 478 mmHg 38%
    11:00 +12°C° 0 mm 3 mps 478 mmHg 27%
    12:00 +13°C° 0 mm 3 mps 478 mmHg 24%
    13:00 +14°C° 0 mm 3 mps 478 mmHg 20%
    14:00 +16°C° 0 mm 3 mps 478 mmHg 16%
    15:00 +16°C° 0 mm 3 mps 478 mmHg 16%
    16:00 +16°C° 0 mm 3 mps 478 mmHg 17%
    17:00 +16°C° 0 mm 3 mps 477 mmHg 17%
    18:00 +14°C° 0 mm 3 mps 477 mmHg 24%
    19:00 +12°C° 0 mm 3 mps 477 mmHg 31%
    20:00 +11°C° 0 mm 3 mps 476 mmHg 37%
    21:00 +10°C° 0 mm 3 mps 476 mmHg 43%
    22:00 +9°C° 0 mm 3 mps 476 mmHg 50%
    23:00 +8°C° 0 mm 3 mps 476 mmHg 56%

    26 September, Wednesday

    Time Temperature Precipitation Wind Pressure Humidity
    00:00 +8°C° 0 mm 2 mps 475 mmHg 57%
    01:00 +7°C° 0 mm 2 mps 475 mmHg 59%
    02:00 +7°C° 0 mm 2 mps 474 mmHg 61%
    03:00 +6°C° 0 mm 2 mps 474 mmHg 62%
    04:00 +6°C° 0 mm 2 mps 474 mmHg 64%
    05:00 +5°C° 0 mm 2 mps 473 mmHg 65%
    06:00 +6°C° 0 mm 2 mps 474 mmHg 59%
    07:00 +7°C° 0 mm 2 mps 475 mmHg 53%
    08:00 +7°C° 0 mm 2 mps 476 mmHg 47%
    09:00 +9°C° 0 mm 2 mps 477 mmHg 39%
    10:00 +12°C° 0 mm 2 mps 478 mmHg 31%
    11:00 +13°C° 0 mm 2 mps 478 mmHg 23%
    12:00 +14°C° 0 mm 2 mps 478 mmHg 20%
    13:00 +14°C° 0 mm 3 mps 478 mmHg 17%
    14:00 +16°C° 0 mm 3 mps 478 mmHg 14%
    15:00 +16°C° 0 mm 3 mps 478 mmHg 14%
    16:00 +16°C° 0 mm 3 mps 478 mmHg 14%
    17:00 +16°C° 0 mm 3 mps 477 mmHg 14%
    18:00 +14°C° 0 mm 3 mps 477 mmHg 21%
    19:00 +12°C° 0 mm 3 mps 477 mmHg 27%
    20:00 +11°C° 0 mm 3 mps 476 mmHg 33%
    21:00 +10°C° 0 mm 3 mps 476 mmHg 41%
    22:00 +9°C° 0 mm 3 mps 476 mmHg 48%
    23:00 +8°C° 0 mm 3 mps 476 mmHg 55%

    27 September, Thursday

    Time Temperature Precipitation Wind Pressure Humidity
    00:00 +8°C° 0 mm 3 mps 475 mmHg 57%
    01:00 +7°C° 0 mm 2 mps 475 mmHg 59%
    02:00 +7°C° 0 mm 2 mps 475 mmHg 61%
    03:00 +7°C° 0 mm 2 mps 474 mmHg 61%
    04:00 +6°C° 0 mm 2 mps 474 mmHg 61%
    05:00 +7°C° 0 mm 1 mps 474 mmHg 61%
    06:00 +8°C° 0 mm 1 mps 475 mmHg 55%
    07:00 +8°C° 0 mm 1 mps 475 mmHg 49%
    08:00 +9°C° 0 mm 1 mps 476 mmHg 44%
    09:00 +9°C° 0 mm 2 mps 477 mmHg 34%
    10:00 +12°C° 0 mm 2 mps 478 mmHg 25%
    11:00 +14°C° 0 mm 2 mps 478 mmHg 16%
    12:00 +15°C° 0 mm 2 mps 478 mmHg 14%
    13:00 +16°C° 0 mm 2 mps 478 mmHg 11%
    14:00 +17°C° 0 mm 2 mps 478 mmHg 9%
    15:00 +17°C° 0 mm 3 mps 478 mmHg 8%
    16:00 +17°C° 0 mm 3 mps 478 mmHg 8%
    17:00 +17°C° 0 mm 3 mps 477 mmHg 8%
    18:00 +14°C° 0 mm 3 mps 477 mmHg 13%
    19:00 +13°C° 0 mm 3 mps 477 mmHg 18%
    20:00 +11°C° 0 mm 3 mps 476 mmHg 24%
    21:00 +10°C° 0 mm 3 mps 476 mmHg 33%
    22:00 +9°C° 0 mm 3 mps 476 mmHg 42%
    23:00 +7°C° 0 mm 4 mps 476 mmHg 51%

    28 September, Friday

    Time Temperature Precipitation Wind Pressure Humidity
    00:00 +8°C° 0 mm 3 mps 475 mmHg 55%
    01:00 +7°C° 0 mm 3 mps 475 mmHg 59%
    02:00 +7°C° 0 mm 2 mps 474 mmHg 63%
    03:00 +6°C° 0 mm 2 mps 474 mmHg 64%
    04:00 +6°C° 0 mm 2 mps 474 mmHg 66%
    05:00 +5°C° 0 mm 2 mps 473 mmHg 67%
    06:00 +6°C° 0 mm 2 mps 474 mmHg 61%
    07:00 +7°C° 0 mm 2 mps 475 mmHg 55%
    08:00 +8°C° 0 mm 3 mps 476 mmHg 49%
    09:00 +10°C° 0 mm 3 mps 477 mmHg 40%
    10:00 +12°C° 0 mm 3 mps 478 mmHg 30%
    11:00 +14°C° 0 mm 3 mps 479 mmHg 21%
    12:00 +16°C° 0 mm 3 mps 479 mmHg 18%
    13:00 +17°C° 0 mm 3 mps 479 mmHg 15%
    14:00 +18°C° 0 mm 3 mps 479 mmHg 12%
    15:00 +18°C° 0 mm 3 mps 479 mmHg 12%
    16:00 +18°C° 0 mm 3 mps 478 mmHg 13%
    17:00 +18°C° 0 mm 3 mps 478 mmHg 13%
    18:00 +16°C° 0 mm 3 mps 478 mmHg 19%
    19:00 +14°C° 0 mm 4 mps 478 mmHg 26%
    20:00 +13°C° 0 mm 4 mps 477 mmHg 32%
    21:00 +12°C° 0 mm 4 mps 477 mmHg 38%
    22:00 +11°C° 0 mm 4 mps 477 mmHg 44%
    23:00 +10°C° 0 mm 4 mps 477 mmHg 50%
    Show more